TimeEET,TemperatureF,Dew PointF,Humidity,Sea Level PressureIn,VisibilityMPH,Wind Direction,Wind SpeedMPH,Gust SpeedMPH,PrecipitationIn,Events,Conditions,WindDirDegrees,DateUTC
12:50 AM,-2.2,-5.8,85,29.95,6.2,Calm,Calm,-,N/A,,Partly Cloudy,0,2013-01-04 22:50:00
1:50 AM,-2.2,-7.6,78,29.95,6.2,Calm,Calm,-,N/A,,Partly Cloudy,0,2013-01-04 23:50:00
2:00 AM,-3,-3,100,,6,Calm,Calm,,,,Scattered Clouds,,2013-01-05 00:00:00
2:50 AM,-2.2,-7.6,78,29.92,6.2,Calm,Calm,-,N/A,,Scattered Clouds,0,2013-01-05 00:50:00
3:50 AM,-2.2,-5.8,85,29.89,6.2,Calm,Calm,-,N/A,,Scattered Clouds,0,2013-01-05 01:50:00
4:50 AM,-2.2,-5.8,85,29.89,6.2,Calm,Calm,-,N/A,,Scattered Clouds,0,2013-01-05 02:50:00
5:50 AM,-4.0,-7.6,85,29.89,6.2,Calm,Calm,-,N/A,,Scattered Clouds,0,2013-01-05 03:50:00
6:50 AM,-5.8,-9.4,84,29.86,6.2,Calm,Calm,-,N/A,,Scattered Clouds,0,2013-01-05 04:50:00
8:00 AM,-2,-3,94,,6,Calm,Calm,,,,Partly Cloudy,,2013-01-05 06:00:00
8:50 AM,-4.0,-7.6,85,29.86,6.2,Calm,Calm,-,N/A,,Scattered Clouds,0,2013-01-05 06:50:00
9:50 AM,5.0,-0.4,78,29.86,6.2,Calm,Calm,-,N/A,,Scattered Clouds,0,2013-01-05 07:50:00
10:50 AM,8.6,-0.4,67,29.83,6.2,Calm,Calm,-,N/A,,Scattered Clouds,0,2013-01-05 08:50:00
11:50 AM,14.0,3.2,62,29.80,6.2,Calm,Calm,-,N/A,,Scattered Clouds,0,2013-01-05 09:50:00
12:50 PM,12.2,5.0,73,29.77,6.2,Variable,1.2,-,N/A,,Scattered Clouds,0,2013-01-05 10:50:00
1:50 PM,12.2,6.8,79,29.77,6.2,Variable,2.3,-,N/A,,Scattered Clouds,0,2013-01-05 11:50:00
2:00 PM,13,8,69,,6,ESE,2.3,,,,Partly Cloudy,120,2013-01-05 12:00:00
2:50 PM,12.2,6.8,79,29.77,6.2,Calm,Calm,-,N/A,,Mostly Cloudy,0,2013-01-05 12:50:00
3:50 PM,14.0,8.6,79,29.77,6.2,ENE,5.8,-,N/A,,Mostly Cloudy,70,2013-01-05 13:50:00
4:50 PM,14.0,10.4,86,29.77,6.2,East,4.6,-,N/A,,Mostly Cloudy,100,2013-01-05 14:50:00
5:50 PM,15.8,12.2,86,29.77,6.2,Calm,Calm,-,N/A,,Overcast,0,2013-01-05 15:50:00
6:50 PM,15.8,14.0,93,29.74,6.2,Calm,Calm,-,N/A,Snow,Light Snow,0,2013-01-05 16:50:00
7:50 PM,15.8,14.0,93,29.74,6.2,Calm,Calm,-,N/A,Snow,Light Snow,0,2013-01-05 17:50:00
8:00 PM,15,15,100,,6,Calm,Calm,,,Snow,Light Snow,,2013-01-05 18:00:00
8:50 PM,14.0,14.0,100,29.74,6.2,Calm,Calm,-,N/A,,Mostly Cloudy,0,2013-01-05 18:50:00
9:50 PM,15.8,14.0,93,29.74,6.2,Calm,Calm,-,N/A,,Mostly Cloudy,0,2013-01-05 19:50:00
10:50 PM,15.8,14.0,93,29.71,6.2,Calm,Calm,-,N/A,,Mostly Cloudy,0,2013-01-05 20:50:00
11:50 PM,15.8,15.8,100,29.68,6.2,Calm,Calm,-,N/A,,Mostly Cloudy,0,2013-01-05 21:50:00